Location: Malanoce
(44.2500°N, 7.4667°E)
Time: 22:28:01
(UTC+00:00)

SPOT 1/Viking Rocket - Pass Details

Date: 17 November 2025
Orbit: 773 x 789 km, 98.2° (Epoch: 13 December)

Event Time Altitude Azimuth Distance (km) Brightness Sun altitude
Rises 17:10:11 0° 148° (SSE) 3,255 6.6 -12.4°
Reaches altitude 10° 17:12:33 10° 143° (SE) 2,333 5.8 -12.8°
Maximum altitude 17:17:28 47° 70° (ENE) 1,030 3.7 -13.6°
Drops below altitude 10° 17:22:26 10° 358° (N) 2,358 5.9 -14.5°
Sets 17:24:50 0° 353° (N) 3,292 6.7 -14.9°
